<?xml version="1.0" encoding="UTF-8" standalone="no" ?>
<gpx xmlns="http://www.topografix.com/GPX/1/1" xmlns:xsi="http://www.w3.org/2001/XMLSchema-instance" xsi:schemaLocation="http://www.topografix.com/GPX/1/1 http://www.topografix.com/GPX/1/1/gpx.xsd" version="1.1" creator="VisuGPX - https://www.visugpx.com">
  <metadata>
    <name>FoussayPaire_Autour_19-22km</name>
    <desc><![CDATA[gnerando idor;8986892_8986940_8986962_9129062_9131846]]></desc>
  </metadata>
  <trk>
    <name><![CDATA[FoussaisPayré_3C_19km-9129062]]></name>
    <extensions>
      <line xmlns="http://www.topografix.com/GPX/gpx_style/0/2">
        <color>00FFFF</color>
        <width>4</width>
      </line>
    </extensions>
    <trkseg>
      <trkpt lat="46.52973" lon="-0.68236">
        <ele>84</ele>
        <time>2023-11-01T17:32:10Z</time>
      </trkpt>
      <trkpt lat="46.53066" lon="-0.68197">
        <ele>82</ele>
        <time>2023-11-01T17:34:19Z</time>
      </trkpt>
      <trkpt lat="46.53098" lon="-0.6831">
        <ele>85</ele>
        <time>2023-11-01T17:36:11Z</time>
      </trkpt>
      <trkpt lat="46.53129" lon="-0.68294">
        <ele>85</ele>
        <time>2023-11-01T17:36:55Z</time>
      </trkpt>
      <trkpt lat="46.53157" lon="-0.68414">
        <ele>85</ele>
        <time>2023-11-01T17:38:52Z</time>
      </trkpt>
      <trkpt lat="46.53287" lon="-0.68775">
        <ele>96</ele>
        <time>2023-11-01T17:45:06Z</time>
      </trkpt>
      <trkpt lat="46.53238" lon="-0.6884">
        <ele>96</ele>
        <time>2023-11-01T17:46:34Z</time>
      </trkpt>
      <trkpt lat="46.53265" lon="-0.69174">
        <ele>93</ele>
        <time>2023-11-01T17:51:43Z</time>
      </trkpt>
      <trkpt lat="46.53431" lon="-0.69144">
        <ele>91</ele>
        <time>2023-11-01T17:55:26Z</time>
      </trkpt>
      <trkpt lat="46.53537" lon="-0.69289">
        <ele>89</ele>
        <time>2023-11-01T17:58:40Z</time>
      </trkpt>
      <trkpt lat="46.5364" lon="-0.69404">
        <ele>91</ele>
        <time>2023-11-01T18:01:34Z</time>
      </trkpt>
      <trkpt lat="46.53733" lon="-0.69825">
        <ele>85</ele>
        <time>2023-11-01T18:08:20Z</time>
      </trkpt>
      <trkpt lat="46.53839" lon="-0.69707">
        <ele>86</ele>
        <time>2023-11-01T18:11:18Z</time>
      </trkpt>
      <trkpt lat="46.53932" lon="-0.69853">
        <ele>81</ele>
        <time>2023-11-01T18:14:20Z</time>
      </trkpt>
      <trkpt lat="46.54188" lon="-0.6997">
        <ele>89</ele>
        <time>2023-11-01T18:20:19Z</time>
      </trkpt>
      <trkpt lat="46.54399" lon="-0.70019">
        <ele>91</ele>
        <time>2023-11-01T18:25:04Z</time>
      </trkpt>
      <trkpt lat="46.54421" lon="-0.70154">
        <ele>90</ele>
        <time>2023-11-01T18:27:11Z</time>
      </trkpt>
      <trkpt lat="46.54205" lon="-0.7019">
        <ele>85</ele>
        <time>2023-11-01T18:32:01Z</time>
      </trkpt>
      <trkpt lat="46.54267" lon="-0.70539">
        <ele>92</ele>
        <time>2023-11-01T18:37:32Z</time>
      </trkpt>
      <trkpt lat="46.53909" lon="-0.70595">
        <ele>88</ele>
        <time>2023-11-01T18:45:32Z</time>
      </trkpt>
      <trkpt lat="46.5367" lon="-0.70772">
        <ele>80</ele>
        <time>2023-11-01T18:51:30Z</time>
      </trkpt>
      <trkpt lat="46.5331" lon="-0.70458">
        <ele>73</ele>
        <time>2023-11-01T19:00:51Z</time>
      </trkpt>
      <trkpt lat="46.5327" lon="-0.70269">
        <ele>75</ele>
        <time>2023-11-01T19:03:52Z</time>
      </trkpt>
      <trkpt lat="46.53119" lon="-0.70171">
        <ele>79</ele>
        <time>2023-11-01T19:07:33Z</time>
      </trkpt>
      <trkpt lat="46.52891" lon="-0.70268">
        <ele>87</ele>
        <time>2023-11-01T19:12:50Z</time>
      </trkpt>
      <trkpt lat="46.52929" lon="-0.70416">
        <ele>87</ele>
        <time>2023-11-01T19:15:15Z</time>
      </trkpt>
      <trkpt lat="46.5274" lon="-0.70554">
        <ele>85</ele>
        <time>2023-11-01T19:19:57Z</time>
      </trkpt>
      <trkpt lat="46.5267" lon="-0.70457">
        <ele>88</ele>
        <time>2023-11-01T19:22:06Z</time>
      </trkpt>
      <trkpt lat="46.52568" lon="-0.70702">
        <ele>85</ele>
        <time>2023-11-01T19:26:29Z</time>
      </trkpt>
      <trkpt lat="46.52438" lon="-0.70595">
        <ele>88</ele>
        <time>2023-11-01T19:29:49Z</time>
      </trkpt>
      <trkpt lat="46.52241" lon="-0.706">
        <ele>91</ele>
        <time>2023-11-01T19:34:11Z</time>
      </trkpt>
      <trkpt lat="46.52009" lon="-0.70962">
        <ele>93</ele>
        <time>2023-11-01T19:41:46Z</time>
      </trkpt>
      <trkpt lat="46.51781" lon="-0.71723">
        <ele>93</ele>
        <time>2023-11-01T19:54:28Z</time>
      </trkpt>
      <trkpt lat="46.51314" lon="-0.71717">
        <ele>79</ele>
        <time>2023-11-01T20:04:51Z</time>
      </trkpt>
      <trkpt lat="46.51093" lon="-0.71549">
        <ele>91</ele>
        <time>2023-11-01T20:10:24Z</time>
      </trkpt>
      <trkpt lat="46.50935" lon="-0.71661">
        <ele>98</ele>
        <time>2023-11-01T20:14:19Z</time>
      </trkpt>
      <trkpt lat="46.50752" lon="-0.71478">
        <ele>100</ele>
        <time>2023-11-01T20:19:15Z</time>
      </trkpt>
      <trkpt lat="46.50573" lon="-0.71462">
        <ele>104</ele>
        <time>2023-11-01T20:23:14Z</time>
      </trkpt>
      <trkpt lat="46.50316" lon="-0.71049">
        <ele>104</ele>
        <time>2023-11-01T20:31:46Z</time>
      </trkpt>
      <trkpt lat="46.5013" lon="-0.70161">
        <ele>94</ele>
        <time>2023-11-01T20:45:58Z</time>
      </trkpt>
      <trkpt lat="46.50021" lon="-0.69492">
        <ele>79</ele>
        <time>2023-11-01T20:56:30Z</time>
      </trkpt>
      <trkpt lat="46.50113" lon="-0.69293">
        <ele>71</ele>
        <time>2023-11-01T21:00:10Z</time>
      </trkpt>
      <trkpt lat="46.50229" lon="-0.69191">
        <ele>71</ele>
        <time>2023-11-01T21:03:11Z</time>
      </trkpt>
      <trkpt lat="46.50074" lon="-0.68814">
        <ele>62</ele>
        <time>2023-11-01T21:09:54Z</time>
      </trkpt>
      <trkpt lat="46.50021" lon="-0.68717">
        <ele>56</ele>
        <time>2023-11-01T21:11:48Z</time>
      </trkpt>
      <trkpt lat="46.50067" lon="-0.68635">
        <ele>55</ele>
        <time>2023-11-01T21:13:25Z</time>
      </trkpt>
      <trkpt lat="46.50137" lon="-0.6864">
        <ele>60</ele>
        <time>2023-11-01T21:14:59Z</time>
      </trkpt>
      <trkpt lat="46.50201" lon="-0.68426">
        <ele>62</ele>
        <time>2023-11-01T21:18:33Z</time>
      </trkpt>
      <trkpt lat="46.5019" lon="-0.68334">
        <ele>61</ele>
        <time>2023-11-01T21:19:59Z</time>
      </trkpt>
      <trkpt lat="46.50236" lon="-0.68247">
        <ele>61</ele>
        <time>2023-11-01T21:21:40Z</time>
      </trkpt>
      <trkpt lat="46.50253" lon="-0.68033">
        <ele>61</ele>
        <time>2023-11-01T21:24:57Z</time>
      </trkpt>
      <trkpt lat="46.50165" lon="-0.67813">
        <ele>58</ele>
        <time>2023-11-01T21:28:51Z</time>
      </trkpt>
      <trkpt lat="46.50292" lon="-0.67624">
        <ele>59</ele>
        <time>2023-11-01T21:32:54Z</time>
      </trkpt>
      <trkpt lat="46.50559" lon="-0.67589">
        <ele>64</ele>
        <time>2023-11-01T21:38:52Z</time>
      </trkpt>
      <trkpt lat="46.50562" lon="-0.67425">
        <ele>60</ele>
        <time>2023-11-01T21:41:22Z</time>
      </trkpt>
      <trkpt lat="46.50517" lon="-0.6739">
        <ele>59</ele>
        <time>2023-11-01T21:42:30Z</time>
      </trkpt>
      <trkpt lat="46.50524" lon="-0.67298">
        <ele>63</ele>
        <time>2023-11-01T21:43:55Z</time>
      </trkpt>
      <trkpt lat="46.50569" lon="-0.67221">
        <ele>68</ele>
        <time>2023-11-01T21:45:28Z</time>
      </trkpt>
      <trkpt lat="46.50538" lon="-0.67002">
        <ele>65</ele>
        <time>2023-11-01T21:48:54Z</time>
      </trkpt>
      <trkpt lat="46.50654" lon="-0.66619">
        <ele>58</ele>
        <time>2023-11-01T21:55:18Z</time>
      </trkpt>
      <trkpt lat="46.51065" lon="-0.66435">
        <ele>60</ele>
        <time>2023-11-01T22:04:52Z</time>
      </trkpt>
      <trkpt lat="46.5097" lon="-0.66252">
        <ele>54</ele>
        <time>2023-11-01T22:08:22Z</time>
      </trkpt>
      <trkpt lat="46.50966" lon="-0.66114">
        <ele>53</ele>
        <time>2023-11-01T22:10:29Z</time>
      </trkpt>
      <trkpt lat="46.50885" lon="-0.65966">
        <ele>53</ele>
        <time>2023-11-01T22:13:23Z</time>
      </trkpt>
      <trkpt lat="46.50882" lon="-0.65828">
        <ele>55</ele>
        <time>2023-11-01T22:15:30Z</time>
      </trkpt>
      <trkpt lat="46.51022" lon="-0.6566">
        <ele>53</ele>
        <time>2023-11-01T22:19:32Z</time>
      </trkpt>
      <trkpt lat="46.51156" lon="-0.65593">
        <ele>55</ele>
        <time>2023-11-01T22:22:41Z</time>
      </trkpt>
      <trkpt lat="46.51686" lon="-0.65578">
        <ele>67</ele>
        <time>2023-11-01T22:34:28Z</time>
      </trkpt>
      <trkpt lat="46.51971" lon="-0.65675">
        <ele>70</ele>
        <time>2023-11-01T22:40:59Z</time>
      </trkpt>
      <trkpt lat="46.52044" lon="-0.66068">
        <ele>71</ele>
        <time>2023-11-01T22:47:13Z</time>
      </trkpt>
      <trkpt lat="46.52238" lon="-0.66374">
        <ele>70</ele>
        <time>2023-11-01T22:53:35Z</time>
      </trkpt>
      <trkpt lat="46.52448" lon="-0.66859">
        <ele>71</ele>
        <time>2023-11-01T23:02:21Z</time>
      </trkpt>
      <trkpt lat="46.52459" lon="-0.66992">
        <ele>70</ele>
        <time>2023-11-01T23:04:24Z</time>
      </trkpt>
      <trkpt lat="46.5255" lon="-0.67026">
        <ele>72</ele>
        <time>2023-11-01T23:06:29Z</time>
      </trkpt>
      <trkpt lat="46.52754" lon="-0.66801">
        <ele>79</ele>
        <time>2023-11-01T23:12:11Z</time>
      </trkpt>
      <trkpt lat="46.52828" lon="-0.67066">
        <ele>80</ele>
        <time>2023-11-01T23:16:34Z</time>
      </trkpt>
      <trkpt lat="46.52912" lon="-0.67521">
        <ele>79</ele>
        <time>2023-11-01T23:23:46Z</time>
      </trkpt>
      <trkpt lat="46.53289" lon="-0.6751">
        <ele>87</ele>
        <time>2023-11-01T23:32:09Z</time>
      </trkpt>
      <trkpt lat="46.53338" lon="-0.6751">
        <ele>88</ele>
        <time>2023-11-01T23:33:15Z</time>
      </trkpt>
      <trkpt lat="46.5338" lon="-0.67708">
        <ele>92</ele>
        <time>2023-11-01T23:36:25Z</time>
      </trkpt>
      <trkpt lat="46.532" lon="-0.67829">
        <ele>83</ele>
        <time>2023-11-01T23:40:50Z</time>
      </trkpt>
      <trkpt lat="46.5314" lon="-0.68155">
        <ele>83</ele>
        <time>2023-11-01T23:46:00Z</time>
      </trkpt>
      <trkpt lat="46.53144" lon="-0.68293">
        <ele>85</ele>
        <time>2023-11-01T23:48:06Z</time>
      </trkpt>
      <trkpt lat="46.53094" lon="-0.68311">
        <ele>85</ele>
        <time>2023-11-01T23:49:15Z</time>
      </trkpt>
      <trkpt lat="46.5308" lon="-0.68203">
        <ele>82</ele>
        <time>2023-11-01T23:50:56Z</time>
      </trkpt>
      <trkpt lat="46.52977" lon="-0.68208">
        <ele>83</ele>
        <time>2023-11-01T23:53:13Z</time>
      </trkpt>
    </trkseg>
  </trk>
</gpx>